EW9054 Weather Reports


time (UTC)temp
C
wind
direction
speed
KPH
gust
KPH
rain 1hr
cm
rain 24hr
cm
rain mn
cm
humidity
%
barometer
mb
20260505031540 16 186 0.0 8.0 0.00 0.00 0.00 60 1014.7
20260505030039 16 153 0.0 4.8 0.00 0.00 0.00 64 1014.8
20260505024538 15 140 0.0 6.4 0.00 0.00 0.00 66 1014.8
20260505023047 14 144 0.0 4.8 0.00 0.00 0.00 66 1014.7
20260505021538 15 182 0.0 0.0 0.00 0.00 0.00 66 1014.5
20260505020041 15 182 0.0 0.0 0.00 0.00 0.00 63 1014.4
20260505014537 16 182 0.0 0.0 0.00 0.00 0.00 62 1014.3
20260505013036 16 182 0.0 0.0 0.00 0.00 0.00 60 1014.3
20260505011536 16 182 0.0 0.0 0.00 0.00 0.00 60 1014.1
20260505010040 17 182 0.0 0.0 0.00 0.00 0.00 59 1014.0
20260505004544 17 182 0.0 0.0 0.00 0.00 0.00 57 1013.7
20260505003037 18 182 0.0 0.0 0.00 0.00 0.00 56 1013.6
20260505001534 19 182 0.0 0.0 0.00 0.00 0.00 53 1013.5
20260505000035 20 182 0.0 0.0 0.00 0.00 0.00 52 1013.4
20260504234548 21 182 0.0 0.0 0.00 0.00 0.00 48 1013.2
20260504233034 22 182 0.0 0.0 0.00 0.00 0.00 44 1013.1
20260504231542 23 194 0.0 6.4 0.00 0.00 0.00 42 1013.0
20260504230034 23 277 0.0 4.8 0.00 0.00 0.00 39 1013.0
20260504224531 24 175 0.0 8.0 0.00 0.00 0.00 38 1012.9
20260504223030 24 232 0.0 0.0 0.00 0.00 0.00 38 1013.0
20260504221529 24 225 0.0 8.0 0.00 0.00 0.00 37 1013.0
20260504220029 24 213 3.2 14.5 0.00 0.00 0.00 36 1013.0
20260504214535 24 208 1.6 11.3 0.00 0.00 0.00 36 1013.1
20260504213029 24 188 1.6 14.5 0.00 0.00 0.00 37 1013.0
20260504211525 24 229 0.0 16.1 0.00 0.00 0.00 36 1013.2
20260504210024 25 199 3.2 12.9 0.00 0.00 0.00 33 1013.2
20260504204549 25 256 1.6 8.0 0.00 0.00 0.00 36 1013.3
20260504203021 24 222 1.6 9.7 0.00 0.00 0.00 38 1013.5
20260504201517 24 210 0.0 11.3 0.00 0.00 0.00 37 1013.7
20260504200016 24 200 0.0 11.3 0.00 0.00 0.00 37 1014.0
20260504194513 24 162 3.2 14.5 0.00 0.00 0.00 40 1014.0
20260504193020 23 32 1.6 14.5 0.00 0.00 0.00 41 1014.1
20260504191510 23 200 1.6 11.3 0.00 0.00 0.00 41 1014.2
20260504190010 23 184 0.0 12.9 0.00 0.00 0.00 40 1014.6
20260504184505 23 277 0.0 9.7 0.00 0.00 0.00 41 1014.7
20260504183003 23 165 1.6 12.9 0.00 0.00 0.00 40 1014.8
20260504181501 23 288 0.0 11.3 0.00 0.00 0.00 45 1015.1
20260504180100 23 268 3.2 8.0 0.00 0.00 0.00 44 1015.3
20260504174555 22 312 0.0 6.4 0.00 0.00 0.00 45 1015.3
20260504173053 22 360 0.0 6.4 0.00 0.00 0.00 45 1015.6
20260504171553 22 194 0.0 11.3 0.00 0.00 0.00 48 1015.6
20260504081533 6 259 0.0 0.0 0.00 0.00 0.00 90 1016.3
20260504050010 9 206 0.0 0.0 0.00 0.00 0.00 85 1016.4
20260504044514 9 189 0.0 0.0 0.00 0.00 0.00 84 1016.5
20260504043009 9 202 0.0 0.0 0.00 0.00 0.00 85 1016.6
20260504041506 9 202 0.0 0.0 0.00 0.00 0.00 84 1016.8
20260504040005 9 200 0.0 0.0 0.00 0.00 0.00 83 1017.1
20260504034504 10 200 0.0 0.0 0.00 0.00 0.00 81 1017.0
20260504033001 10 200 0.0 0.0 0.00 0.00 0.00 80 1017.1